Location: Haskovo
(41.9227°N, 25.5707°E)
Time: 22:23:44
(UTC+03:00)

ISS - Pass Details

Date: 21 May 2025
Orbit: 415 x 416 km, 51.6° (Epoch: 16 June)

Event Time Altitude Azimuth Distance (km) Brightness Sun altitude
Rises 00:06:05 0° 302° (WNW) 2,359 0.8 -25.9°
Reaches altitude 10° 00:08:12 10° 299° (WNW) 1,492 -0.4 -26.0°
Enters shadow 00:09:08 17° 295° (WNW) 1,122 -1.2 -26.1°
